Weather History for Hanford, CA

Change the Weather History Date:

Sunday, March 31, 2013

  Actual Average Record
Temperature  
Mean Temperature 64 °F 57 °F  
Max Temperature 73 °F 71 °F 87 °F (2002)
Min Temperature 54 °F 44 °F 36 °F (2009)
Degree Days  
Heating Degree Days 1    
Month to date heating degree days 185  
Since 1 July heating degree days 2246  
Cooling Degree Days 0    
Month to date cooling degree days 6  
Year to date cooling degree days 6  
Growing Degree Days 14 (Base 50)    
Moisture  
Dew Point 52 °F    
Average Humidity 69    
Maximum Humidity 100    
Minimum Humidity 38    
Precipitation  
Precipitation 0.12 in 0.04 in 0.35 in (1998)
Month to date precipitation 0.67 1.63  
Year to date precipitation 1.34 5.40  
Since 1 July precipitation 3.34 8.74  
Snow  
Snow 0.00 in - - ()
Month to date snowfall 0.0  
Since 1 July snowfall 0.0  
Snow Depth 0.00 in    
Sea Level Pressure  
Sea Level Pressure 30.06 in    
Wind  
Wind Speed 5 mph (South)    
Max Wind Speed 13 mph    
Max Gust Speed 16 mph    
Visibility 8 miles    
Events Rain , Thunderstorm    
T = Trace of Precipitation, MM = Missing Value Source: NWS Daily Summary

Daily Weather History Graph

Daily Weather History Graph

Search for Another Location

Airport:

Trip Planner

Search our weather history database for the weather conditions in past years. The results will help you decide how hot, cold, wet, or windy it might be!

Date:

Astronomy

Mar. 31, 2013 Rise Set
Actual Time 6:45 AM PDT 7:20 PM PDT
Civil Twilight 6:19 AM PDT 7:45 PM PDT
Nautical Twilight 5:49 AM PDT 8:16 PM PDT
Astronomical Twilight 5:18 AM PDT 8:47 PM PDT
Moon No Moon Rise 9:45 AM PDT (3/31)
Length of Visible Light 13h 26m
Length of Day
12h 34m
Waning Gibbous, 76% of the Moon is Illuminated
Mar 31
Waning Gibbous
Apr 2
Last Quarter
Apr 10
New
Apr 18
First Quarter
Apr 25
Full

Hourly Weather History & Observations

Time (PDT) Temp. Dew Point Humidity Pressure Visibility Wind Dir Wind Speed Gust Speed Precip Events Conditions
12:53 AM 60.1 °F 57.0 °F 90% 30.06 in 10.0 mi SSW 4.6 mph - 0.01 in Rain Light Rain
1:53 AM 60.1 °F 55.9 °F 86% 30.08 in 10.0 mi West 3.5 mph - 0.02 in Rain Light Rain
2:22 AM 60.8 °F 57.2 °F 88% 30.06 in 10.0 mi Calm Calm - 0.01 in Rain , Thunderstorm Light Rain
2:37 AM 59.0 °F 55.4 °F 88% 30.06 in 5.0 mi NW 3.5 mph - 0.03 in Rain Light Rain
2:53 AM 59.0 °F 55.9 °F 90% 30.09 in 3.0 mi Calm Calm - 0.09 in Rain , Thunderstorm Heavy Rain
3:25 AM 59.0 °F 55.4 °F 88% 30.08 in - Calm Calm - 0.00 in   Overcast
3:53 AM 57.9 °F 55.9 °F 93% 30.07 in - NE 4.6 mph - 0.01 in   Overcast
4:53 AM 57.9 °F 55.9 °F 93% 30.08 in - Calm Calm - N/A   Overcast
5:53 AM 57.9 °F 55.0 °F 90% 30.08 in - Calm Calm - N/A   Overcast
6:53 AM 54.0 °F 53.1 °F 97% 30.09 in - ENE 3.5 mph - N/A   Clear
7:53 AM 55.9 °F 55.0 °F 97% 30.11 in - Calm Calm - N/A   Clear
8:53 AM 62.1 °F 57.0 °F 84% 30.11 in - East 4.6 mph - N/A   Overcast
9:53 AM 64.9 °F 54.0 °F 68% 30.10 in - ESE 3.5 mph - N/A   Partly Cloudy
10:53 AM 66.9 °F 53.1 °F 61% 30.11 in - SSE 5.8 mph - N/A   Partly Cloudy
11:53 AM 69.1 °F 51.1 °F 53% 30.10 in - SSW 8.1 mph - N/A   Mostly Cloudy
12:53 PM 69.1 °F 50.0 °F 51% 30.08 in - Calm Calm - N/A   Partly Cloudy
1:53 PM 70.0 °F 48.0 °F 46% 30.06 in - SSE 3.5 mph - N/A   Mostly Cloudy
2:53 PM 71.1 °F 46.9 °F 42% 30.03 in - Calm Calm - N/A   Clear
3:53 PM 73.0 °F 46.0 °F 38% 30.01 in - Variable 6.9 mph - N/A   Partly Cloudy
4:53 PM 73.0 °F 46.0 °F 38% 29.99 in - SE 5.8 mph - N/A   Partly Cloudy
5:53 PM 71.1 °F 50.0 °F 47% 29.99 in - SSE 9.2 mph - 0.00 in Rain Light Rain
6:53 PM 66.0 °F 50.0 °F 56% 29.99 in - SE 8.1 mph - 0.00 in   Clear
7:53 PM 63.0 °F 50.0 °F 63% 30.01 in - South 11.5 mph - N/A   Partly Cloudy
8:53 PM 61.0 °F 46.0 °F 58% 30.04 in - SW 6.9 mph - N/A   Scattered Clouds
9:53 PM 60.1 °F 45.0 °F 57% 30.06 in - SW 9.2 mph - N/A   Partly Cloudy
10:53 PM 57.9 °F 46.0 °F 65% 30.06 in - WSW 6.9 mph - N/A   Clear
11:53 PM 57.0 °F 48.0 °F 72% 30.07 in - West 6.9 mph - N/A   Clear